This is the latest recevied weather packets stored in our database for station/object K1RFS. If no packets are shown the sender has not sent any weather packets the latest 10 day(s).
| Time | Temp. | Humidity | Pressure | Rain* | Wind** | Luminosity | Snow |
|---|---|---|---|---|---|---|---|
| 1787938555 | 26.67° C | 37% | 1005.8 hPa | 0 mm | - | 155 W/m² | - |
| 1787938246 | 26.67° C | 36% | 1005.6 hPa | 0 mm | - | 142 W/m² | - |
| 1787937945 | 26.67° C | 36% | 1005.6 hPa | 0 mm | - | 137 W/m² | - |
| 1787937641 | 26.67° C | 36% | 1005.6 hPa | 0 mm | - | 139 W/m² | - |
| 1787937338 | 26.67° C | 36% | 1005.4 hPa | 0 mm | - | 126 W/m² | - |
| 1787937033 | 27.22° C | 35% | 1005.5 hPa | 0 mm | - | 113 W/m² | - |
| 1787936732 | 27.22° C | 35% | 1005.3 hPa | 0 mm | - | 101 W/m² | - |
| 1787936427 | 26.67° C | 36% | 1005.5 hPa | 0 mm | - | 99 W/m² | - |
| 1787936126 | 26.67° C | 36% | 1005.7 hPa | 0 mm | - | 101 W/m² | - |
| 1787935822 | 26.67° C | 35% | 1005.8 hPa | 0 mm | - | 102 W/m² | - |
| 1787935518 | 26.11° C | 40% | 1005.7 hPa | 0 mm | - | 102 W/m² | - |
| 1787935214 | 26.11° C | 42% | 1005.7 hPa | 0 mm | - | 92 W/m² | - |
| 1787934909 | 26.11° C | 43% | 1005.8 hPa | 0 mm | - | 101 W/m² | - |
| 1787934610 | 25.56° C | 45% | 1005.6 hPa | 0 mm | - | 129 W/m² | - |
| 1787934304 | 25.56° C | 46% | 1005.7 hPa | 0 mm | - | 158 W/m² | - |
| 1787934003 | 25.56° C | 44% | 1005.4 hPa | 0 mm | - | 161 W/m² | - |
| 1787933702 | 25.56° C | 41% | 1005.6 hPa | 0 mm | - | 168 W/m² | - |
| 1787933397 | 25.56° C | 43% | 1005.5 hPa | 0 mm | - | 153 W/m² | - |
| 1787933097 | 25.56° C | 40% | 1005.5 hPa | 0 mm | - | 128 W/m² | - |
| 1787932795 | 25.56° C | 40% | 1005.2 hPa | 0 mm | - | 108 W/m² | - |
| 1787932491 | 25° C | 40% | 1005.2 hPa | 0 mm | - | 96 W/m² | - |
| 1787932186 | 25° C | 40% | 1005.4 hPa | 0 mm | - | 92 W/m² | - |
| 1787931884 | 25° C | 41% | 1005 hPa | 0 mm | - | 98 W/m² | - |
| 1787931579 | 25° C | 42% | 1005.2 hPa | 0 mm | - | 90 W/m² | - |
| 1787931274 | 25° C | 41% | 1005.7 hPa | 0 mm | - | 73 W/m² | - |
* Rain latest hour (hover to see other rain measurements)
** Current wind speed in m/s (hover to see current wind gust speed)